HKE510 VMMC-VHHH

Flight info

Callsign HKE510
Flight time 0h 34m
Altitude 24000
Route ALLEY DCT CANTO
Aircraft A321/M-SDE3FGHIRWY/LB1

Departure

Time 2026-04-25 10:54
Airport Macau International Airport (VMMC)

Arrival

Time 2026-04-25 11:29
Airport Hong Kong International Airport (VHHH)
Time Latitude Longitude Altitude Speed Heading
2026-04-25 10:32 22.15695 113.57726 29 ft 0 kts 117°
2026-04-25 10:39 22.15695 113.57725 29 ft 0 kts 117°
2026-04-25 10:43 22.15701 113.57713 29 ft 3 kts 117°
2026-04-25 10:43 22.15711 113.57693 29 ft 3 kts 117°
2026-04-25 10:44 22.15718 113.57677 29 ft 3 kts 124°
2026-04-25 10:44 22.15730 113.57664 29 ft 3 kts 165°
2026-04-25 10:44 22.15747 113.57663 29 ft 3 kts 200°
2026-04-25 10:44 22.15758 113.57668 29 ft 0 kts 204°
2026-04-25 10:46 22.15757 113.57668 29 ft 1 kts 204°
2026-04-25 10:46 22.15744 113.57662 29 ft 3 kts 204°
2026-04-25 10:47 22.15720 113.57649 29 ft 5 kts 206°
2026-04-25 10:47 22.15686 113.57627 29 ft 7 kts 215°
2026-04-25 10:47 22.15642 113.57598 29 ft 8 kts 192°
2026-04-25 10:47 22.15595 113.57632 29 ft 9 kts 125°
2026-04-25 10:48 22.15557 113.57694 29 ft 11 kts 123°
2026-04-25 10:48 22.15512 113.57767 29 ft 12 kts 123°
2026-04-25 10:48 22.15461 113.57849 29 ft 14 kts 123°
2026-04-25 10:48 22.15405 113.57941 29 ft 15 kts 123°
2026-04-25 10:49 22.15343 113.58041 29 ft 17 kts 123°
2026-04-25 10:49 22.15277 113.58149 29 ft 18 kts 124°
2026-04-25 10:49 22.15206 113.58263 29 ft 19 kts 123°
2026-04-25 10:49 22.15131 113.58384 29 ft 20 kts 123°
2026-04-25 10:50 22.15055 113.58508 29 ft 20 kts 124°
2026-04-25 10:50 22.14974 113.58637 29 ft 21 kts 123°
2026-04-25 10:50 22.14891 113.58771 29 ft 22 kts 124°
2026-04-25 10:50 22.14807 113.58909 29 ft 22 kts 123°
2026-04-25 10:51 22.14713 113.59040 29 ft 21 kts 156°
2026-04-25 10:51 22.14574 113.59093 29 ft 22 kts 160°
2026-04-25 10:51 22.14429 113.59146 29 ft 22 kts 162°
2026-04-25 10:51 22.14279 113.59202 29 ft 23 kts 160°
2026-04-25 10:52 22.14126 113.59260 29 ft 24 kts 160°
2026-04-25 10:52 22.13968 113.59317 29 ft 24 kts 162°
2026-04-25 10:52 22.13807 113.59376 29 ft 25 kts 161°
2026-04-25 10:52 22.13644 113.59436 29 ft 25 kts 162°
2026-04-25 10:53 22.13530 113.59522 28 ft 19 kts 126°
2026-04-25 10:53 22.13499 113.59631 28 ft 14 kts 61°
2026-04-25 10:53 22.13593 113.59639 28 ft 18 kts 342°
2026-04-25 10:53 22.13942 113.59512 33 ft 92 kts 341°
2026-04-25 10:54 22.14772 113.59207 31 ft 157 kts 341°
2026-04-25 10:54 22.15479 113.58954 389 ft 158 kts 344°
2026-04-25 10:54 22.16841 113.58457 1358 ft 154 kts 344°
2026-04-25 10:54 22.17900 113.58272 1939 ft 160 kts
2026-04-25 10:55 22.18995 113.58716 2184 ft 180 kts 32°
2026-04-25 10:55 22.20145 113.59434 2401 ft 203 kts 31°
2026-04-25 10:55 22.21407 113.60211 2784 ft 218 kts 30°
2026-04-25 10:55 22.22753 113.61033 3421 ft 226 kts 30°
2026-04-25 10:56 22.24135 113.61875 4151 ft 231 kts 29°
2026-04-25 10:56 22.25550 113.62735 4883 ft 236 kts 28°
2026-04-25 10:56 22.26990 113.63610 5591 ft 240 kts 28°
2026-04-25 10:56 22.28441 113.64553 5914 ft 247 kts 37°
2026-04-25 10:57 22.29878 113.65794 6006 ft 280 kts 38°
2026-04-25 10:57 22.31435 113.67138 6008 ft 290 kts 38°
2026-04-25 10:57 22.32999 113.68530 6004 ft 292 kts 44°
2026-04-25 10:57 22.34185 113.70295 6009 ft 292 kts 65°
2026-04-25 10:58 22.34789 113.72379 6036 ft 292 kts 80°
2026-04-25 10:58 22.35203 113.74552 6718 ft 296 kts 79°
2026-04-25 10:58 22.35626 113.76744 7534 ft 298 kts 79°
2026-04-25 10:58 22.36054 113.78950 8308 ft 302 kts 78°
2026-04-25 10:59 22.36491 113.81190 8822 ft 307 kts 78°
2026-04-25 10:59 22.36927 113.83455 8972 ft 308 kts 80°
2026-04-25 10:59 22.36967 113.85754 9004 ft 306 kts 99°
2026-04-25 10:59 22.36370 113.87917 9008 ft 305 kts 117°
2026-04-25 11:00 22.35196 113.89798 9005 ft 301 kts 137°
2026-04-25 11:00 22.33532 113.91130 9011 ft 297 kts 152°
2026-04-25 11:00 22.31746 113.92262 9010 ft 298 kts 153°
2026-04-25 11:00 22.29951 113.93383 9004 ft 298 kts 153°
2026-04-25 11:01 22.28162 113.94495 8998 ft 291 kts 153°
2026-04-25 11:01 22.26434 113.95571 8870 ft 283 kts 153°
2026-04-25 11:01 22.24751 113.96608 8713 ft 275 kts 155°
2026-04-25 11:01 22.23029 113.97447 8450 ft 269 kts 162°
2026-04-25 11:02 22.21254 113.98037 8163 ft 265 kts 170°
2026-04-25 11:02 22.19455 113.98386 7882 ft 261 kts 177°
2026-04-25 11:02 22.17676 113.98529 7753 ft 252 kts 180°
2026-04-25 11:02 22.15957 113.98641 7634 ft 242 kts 181°
2026-04-25 11:03 22.14359 113.98381 7451 ft 227 kts 210°
2026-04-25 11:03 22.13174 113.97336 7163 ft 220 kts 232°
2026-04-25 11:03 22.12266 113.96039 6859 ft 219 kts 236°
2026-04-25 11:03 22.11387 113.94680 6562 ft 217 kts 236°
2026-04-25 11:04 22.10548 113.93356 6263 ft 216 kts 236°
2026-04-25 11:04 22.09729 113.92000 5946 ft 215 kts 243°
2026-04-25 11:04 22.09465 113.90437 5619 ft 216 kts 276°
2026-04-25 11:04 22.09772 113.89387 5385 ft 220 kts 291°
2026-04-25 11:05 22.10739 113.87446 4914 ft 223 kts 296°
2026-04-25 11:05 22.11519 113.85999 4592 ft 223 kts 296°
2026-04-25 11:05 22.12302 113.84550 4261 ft 223 kts 296°
2026-04-25 11:05 22.13081 113.83101 3940 ft 223 kts 296°
2026-04-25 11:06 22.13851 113.81654 3609 ft 222 kts 296°
2026-04-25 11:06 22.14616 113.80199 3204 ft 224 kts 296°
2026-04-25 11:06 22.15365 113.78751 2974 ft 216 kts 296°
2026-04-25 11:06 22.16071 113.77378 2865 ft 201 kts 299°
2026-04-25 11:07 22.17044 113.76362 2586 ft 195 kts 327°
2026-04-25 11:07 22.18218 113.75623 2189 ft 194 kts 332°
2026-04-25 11:07 22.19373 113.74956 2011 ft 189 kts 340°
2026-04-25 11:07 22.20659 113.74674 1962 ft 188 kts 355°
2026-04-25 11:08 22.21957 113.74525 1886 ft 187 kts 356°
2026-04-25 11:08 22.23251 113.74385 1812 ft 186 kts 356°
2026-04-25 11:08 22.24526 113.74427 1737 ft 182 kts 20°
2026-04-25 11:08 22.25633 113.75082 1681 ft 182 kts 34°
2026-04-25 11:09 22.26669 113.75854 1594 ft 180 kts 36°
2026-04-25 11:09 22.27692 113.76638 1520 ft 180 kts 36°
2026-04-25 11:09 22.28611 113.77561 1544 ft 188 kts 54°
2026-04-25 11:09 22.29099 113.78763 1520 ft 162 kts 70°
2026-04-25 11:10 22.29454 113.79858 1506 ft 150 kts 70°
2026-04-25 11:10 22.29569 113.80214 1470 ft 148 kts 69°
2026-04-25 11:10 22.30126 113.81934 1248 ft 144 kts 69°
2026-04-25 11:10 22.30455 113.82950 1057 ft 142 kts 69°
2026-04-25 11:11 22.30783 113.83967 886 ft 143 kts 71°
2026-04-25 11:11 22.31113 113.84989 694 ft 144 kts 72°
2026-04-25 11:11 22.31443 113.86012 513 ft 144 kts 72°
2026-04-25 11:11 22.31769 113.87019 316 ft 144 kts 75°
2026-04-25 11:12 22.32094 113.88027 167 ft 140 kts 73°
2026-04-25 11:12 22.32418 113.89014 392 ft 146 kts 72°
2026-04-25 11:12 22.32763 113.90114 1123 ft 159 kts 70°
2026-04-25 11:12 22.33096 113.91268 2115 ft 168 kts 73°
2026-04-25 11:13 22.33478 113.92536 2683 ft 186 kts 73°
2026-04-25 11:13 22.33922 113.93931 2907 ft 209 kts 72°
2026-04-25 11:13 22.34425 113.95495 3247 ft 227 kts 72°
2026-04-25 11:13 22.34977 113.97120 3914 ft 234 kts 64°
2026-04-25 11:14 22.35578 113.98122 4423 ft 238 kts 49°
2026-04-25 11:14 22.36892 113.99223 5121 ft 246 kts 26°
2026-04-25 11:14 22.38482 114.00067 5499 ft 269 kts 24°
2026-04-25 11:14 22.40246 114.00958 5923 ft 288 kts 23°
2026-04-25 11:15 22.41990 114.02038 6006 ft 291 kts 41°
2026-04-25 11:15 22.43189 114.03770 6030 ft 285 kts 68°
2026-04-25 11:15 22.43526 114.05784 6027 ft 266 kts 97°
2026-04-25 11:15 22.42960 114.07641 6033 ft 259 kts 127°
2026-04-25 11:16 22.39994 114.09322 6030 ft 246 kts 186°
2026-04-25 11:16 22.38313 114.09006 6033 ft 245 kts 195°
2026-04-25 11:16 22.36650 114.08558 6033 ft 246 kts 196°
2026-04-25 11:17 22.34989 114.08100 6033 ft 246 kts 196°
2026-04-25 11:17 22.33328 114.07639 6034 ft 246 kts 196°
2026-04-25 11:17 22.31671 114.07175 6033 ft 246 kts 196°
2026-04-25 11:17 22.30015 114.06708 6033 ft 246 kts 196°
2026-04-25 11:18 22.28349 114.06240 6031 ft 247 kts 196°
2026-04-25 11:18 22.26688 114.05776 6035 ft 247 kts 197°
2026-04-25 11:18 22.25074 114.05186 6029 ft 244 kts 211°
2026-04-25 11:18 22.23645 114.04200 6035 ft 244 kts 216°
2026-04-25 11:19 22.22254 114.03152 6033 ft 244 kts 216°
2026-04-25 11:19 22.20869 114.02095 6032 ft 244 kts 216°
2026-04-25 11:19 22.19486 114.01043 6035 ft 243 kts 216°
2026-04-25 11:19 22.18152 114.00029 5969 ft 232 kts 216°
2026-04-25 11:20 22.16858 113.99042 5825 ft 223 kts 216°
2026-04-25 11:20 22.15733 113.97930 5556 ft 218 kts 239°
2026-04-25 11:20 22.15287 113.96387 5246 ft 217 kts 262°
2026-04-25 11:20 22.15182 113.94756 4914 ft 218 kts 266°
2026-04-25 11:21 22.15128 113.93121 4564 ft 219 kts 266°
2026-04-25 11:21 22.15083 113.91476 4240 ft 219 kts 266°
2026-04-25 11:21 22.15038 113.89836 3914 ft 219 kts 266°
2026-04-25 11:21 22.14995 113.88191 3572 ft 220 kts 266°
2026-04-25 11:22 22.14994 113.86542 3250 ft 220 kts 278°
2026-04-25 11:22 22.15216 113.85479 3204 ft 210 kts 284°
2026-04-25 11:22 22.15775 113.83582 3094 ft 196 kts 287°
2026-04-25 11:22 22.16200 113.82198 3021 ft 193 kts 286°
2026-04-25 11:23 22.16626 113.80822 3030 ft 194 kts 287°
2026-04-25 11:23 22.17054 113.79445 3016 ft 192 kts 287°
2026-04-25 11:23 22.17472 113.78092 2639 ft 191 kts 287°
2026-04-25 11:23 22.18047 113.76803 2210 ft 193 kts 313°
2026-04-25 11:24 22.19159 113.76058 2044 ft 189 kts 339°
2026-04-25 11:24 22.20392 113.75538 2036 ft 190 kts 341°
2026-04-25 11:24 22.21661 113.75192 1971 ft 185 kts 353°
2026-04-25 11:24 22.22923 113.75033 1573 ft 179 kts 356°
2026-04-25 11:25 22.24173 113.74906 1508 ft 183 kts 359°
2026-04-25 11:25 22.25372 113.75227 1530 ft 182 kts 29°
2026-04-25 11:25 22.26450 113.75973 1534 ft 182 kts 36°
2026-04-25 11:25 22.27486 113.76754 1537 ft 182 kts 36°
2026-04-25 11:26 22.28485 113.77591 1524 ft 182 kts 47°
2026-04-25 11:26 22.29076 113.78683 1542 ft 158 kts 71°
2026-04-25 11:26 22.29418 113.79751 1511 ft 146 kts 70°
2026-04-25 11:26 22.29747 113.80763 1411 ft 141 kts 71°
2026-04-25 11:27 22.30072 113.81768 1261 ft 139 kts 70°
2026-04-25 11:27 22.30385 113.82735 1093 ft 137 kts 70°
2026-04-25 11:27 22.30702 113.83713 923 ft 138 kts 71°
2026-04-25 11:27 22.30918 113.84373 816 ft 139 kts 73°
2026-04-25 11:28 22.31337 113.85671 575 ft 138 kts 72°
2026-04-25 11:28 22.31656 113.86649 385 ft 138 kts 74°
2026-04-25 11:28 22.31969 113.87619 215 ft 136 kts 74°
2026-04-25 11:28 22.32275 113.88577 42 ft 132 kts 74°
2026-04-25 11:29 22.32529 113.89367 36 ft 88 kts 70°
2026-04-25 11:29 22.32671 113.89807 36 ft 39 kts 71°
2026-04-25 11:29 22.32707 113.90073 37 ft 35 kts 96°
2026-04-25 11:29 22.32642 113.90287 38 ft 18 kts 153°
2026-04-25 11:30 22.32514 113.90318 37 ft 19 kts 159°
2026-04-25 11:30 22.32385 113.90363 37 ft 20 kts 161°
2026-04-25 11:30 22.32245 113.90414 37 ft 22 kts 160°
2026-04-25 11:30 22.32097 113.90470 37 ft 23 kts 161°
2026-04-25 11:31 22.31940 113.90529 37 ft 24 kts 161°
2026-04-25 11:31 22.31776 113.90592 37 ft 26 kts 160°
2026-04-25 11:31 22.31661 113.90631 37 ft 12 kts 182°
2026-04-25 11:31 22.31613 113.90558 37 ft 14 kts 251°
2026-04-25 11:32 22.31580 113.90455 37 ft 15 kts 251°
2026-04-25 11:32 22.31543 113.90339 36 ft 17 kts 251°
2026-04-25 11:32 22.31501 113.90211 36 ft 19 kts 251°
2026-04-25 11:32 22.31456 113.90071 34 ft 21 kts 251°
2026-04-25 11:33 22.31408 113.89920 37 ft 21 kts 250°
2026-04-25 11:33 22.31371 113.89809 37 ft 12 kts 251°
2026-04-25 11:33 22.31303 113.89773 37 ft 13 kts 164°
2026-04-25 11:33 22.31214 113.89806 37 ft 15 kts 161°
2026-04-25 11:34 22.31109 113.89846 37 ft 17 kts 160°
2026-04-25 11:34 22.30993 113.89890 37 ft 18 kts 161°
2026-04-25 11:34 22.30886 113.89938 37 ft 14 kts 131°
2026-04-25 11:34 22.30895 113.90043 37 ft 16 kts 70°
2026-04-25 11:35 22.30933 113.90159 37 ft 17 kts 71°
2026-04-25 11:35 22.30975 113.90288 35 ft 19 kts 71°
2026-04-25 11:35 22.31019 113.90430 37 ft 21 kts 72°
2026-04-25 11:35 22.31069 113.90580 37 ft 22 kts 71°
2026-04-25 11:36 22.31120 113.90739 37 ft 23 kts 70°
2026-04-25 11:36 22.31175 113.90906 37 ft 24 kts 70°
2026-04-25 11:36 22.31231 113.91081 37 ft 25 kts 71°
2026-04-25 11:36 22.31289 113.91262 38 ft 26 kts 71°
2026-04-25 11:37 22.31331 113.91394 37 ft 12 kts 71°
2026-04-25 11:37 22.31315 113.91454 37 ft 10 kts 146°
2026-04-25 11:37 22.31243 113.91483 37 ft 12 kts 161°
2026-04-25 11:37 22.31160 113.91514 37 ft 13 kts 160°
2026-04-25 11:38 22.31143 113.91557 37 ft 6 kts 80°
2026-04-25 11:38 22.31156 113.91605 35 ft 5 kts 70°
2026-04-25 11:38 22.31161 113.91621 35 ft 1 kts 71°
2026-04-25 11:38 22.31163 113.91626 36 ft 0 kts 71°